| time (UTC) | temp C | wind direction | speed KPH | gust KPH | rain 1hr cm | rain 24hr cm | rain mn cm | humidity % | barometer mb |
| 20260508114516 | 6 | 322 | 0.0 | 0.0 | 0.00 | 0.00 | 0.00 | 87 | 1009.5 |
| 20260508113015 | 6 | 322 | 0.0 | 0.0 | 0.00 | 0.00 | 0.00 | 86 | 1009.6 |
| 20260508111514 | 7 | 322 | 0.0 | 0.0 | 0.00 | 0.00 | 0.00 | 87 | 1009.3 |
| 20260508110025 | 6 | 322 | 0.0 | 0.0 | 0.00 | 0.00 | 0.00 | 86 | 1009.3 |
| 20260508104509 | 7 | 322 | 0.0 | 0.0 | 0.00 | 0.00 | 0.00 | 85 | 1009.3 |
| 20260508103008 | 7 | 322 | 0.0 | 0.0 | 0.00 | 0.00 | 0.00 | 84 | 1009.3 |
| 20260508101507 | 7 | 322 | 0.0 | 0.0 | 0.00 | 0.00 | 0.00 | 84 | 1009.3 |
| 20260508100005 | 7 | 322 | 0.0 | 0.0 | 0.00 | 0.00 | 0.00 | 84 | 1009.2 |
| 20260508094504 | 7 | 322 | 0.0 | 0.0 | 0.00 | 0.00 | 0.00 | 84 | 1009.0 |
| 20260508093001 | 7 | 322 | 0.0 | 0.0 | 0.00 | 0.00 | 0.00 | 83 | 1009.1 |
| 20260508091502 | 7 | 322 | 0.0 | 0.0 | 0.00 | 0.00 | 0.00 | 83 | 1009.0 |
| 20260508090113 | 7 | 322 | 0.0 | 0.0 | 0.00 | 0.00 | 0.00 | 83 | 1009.0 |
| 20260508084558 | 8 | 322 | 0.0 | 0.0 | 0.00 | 0.00 | 0.00 | 82 | 1009.0 |
| 20260508083057 | 8 | 322 | 0.0 | 3.2 | 0.00 | 0.00 | 0.00 | 82 | 1008.9 |
| 20260508081603 | 8 | 322 | 0.0 | 0.0 | 0.00 | 0.00 | 0.00 | 81 | 1008.9 |
| 20260508080054 | 8 | 322 | 0.0 | 4.8 | 0.00 | 0.00 | 0.00 | 81 | 1008.9 |
| 20260508074551 | 8 | 322 | 0.0 | 3.2 | 0.00 | 0.00 | 0.00 | 80 | 1008.8 |
| 20260508073101 | 9 | 322 | 1.6 | 4.8 | 0.00 | 0.00 | 0.00 | 78 | 1008.8 |
| 20260508071555 | 9 | 322 | 0.0 | 0.0 | 0.00 | 0.00 | 0.00 | 78 | 1008.8 |
| 20260508070045 | 10 | 322 | 0.0 | 0.0 | 0.00 | 0.00 | 0.00 | 77 | 1008.5 |
| 20260508064543 | 10 | 322 | 0.0 | 3.2 | 0.00 | 0.00 | 0.00 | 76 | 1008.4 |
| 20260508063041 | 10 | 322 | 1.6 | 4.8 | 0.00 | 0.00 | 0.00 | 76 | 1008.5 |
| 20260508061540 | 10 | 322 | 1.6 | 3.2 | 0.00 | 0.00 | 0.00 | 75 | 1008.6 |
| 20260508060037 | 10 | 322 | 1.6 | 4.8 | 0.00 | 0.00 | 0.00 | 74 | 1008.5 |
| 20260508054537 | 10 | 322 | 0.0 | 0.0 | 0.00 | 0.00 | 0.00 | 74 | 1008.4 |
| 20260508053059 | 11 | 322 | 0.0 | 3.2 | 0.00 | 0.00 | 0.00 | 71 | 1008.2 |
| 20260508051540 | 11 | 322 | 0.0 | 0.0 | 0.00 | 0.00 | 0.00 | 71 | 1008.0 |
| 20260508050036 | 12 | 322 | 3.2 | 4.8 | 0.00 | 0.00 | 0.00 | 69 | 1007.8 |
| 20260508044535 | 12 | 322 | 0.0 | 3.2 | 0.00 | 0.00 | 0.00 | 66 | 1007.8 |
| 20260508043034 | 12 | 322 | 0.0 | 3.2 | 0.00 | 0.00 | 0.00 | 67 | 1007.6 |
| 20260508041556 | 13 | 322 | 0.0 | 3.2 | 0.00 | 0.00 | 0.00 | 65 | 1007.6 |
| 20260508040042 | 14 | 322 | 0.0 | 1.6 | 0.00 | 0.00 | 0.00 | 61 | 1007.5 |
| 20260508034535 | 15 | 322 | 0.0 | 3.2 | 0.00 | 0.00 | 0.00 | 57 | 1007.3 |
| 20260508033033 | 16 | 322 | 0.0 | 8.0 | 0.00 | 0.00 | 0.00 | 52 | 1007.1 |
| 20260508004526 | 21 | 264 | 1.6 | 6.4 | 0.00 | 0.00 | 0.00 | 36 | 1006.1 |
| 20260508003033 | 21 | 184 | 1.6 | 6.4 | 0.00 | 0.00 | 0.00 | 36 | 1006.2 |
| 20260508001527 | 21 | 312 | 1.6 | 6.4 | 0.00 | 0.00 | 0.00 | 37 | 1006.2 |
| 20260508000030 | 21 | 302 | 1.6 | 6.4 | 0.00 | 0.00 | 0.00 | 39 | 1006.0 |